一网星座-0034星 (ONEWEB-0034 )

导读

ONEWEB-0034是英国OneWeb公司“一网”低轨宽带卫星星座的卫星,于2020年3月21日发射,属于星座一期组网卫星。OneWeb星座旨在为全球偏远、基础设施薄弱地区提供低成本互联网接入,优先服务飞机、船舶通信,后续向电信运营商开放带宽资源。作为星座组网的重要组成,该卫星助力OneWeb推进全球卫星宽带覆盖部署,后续在英国政府、印度巴帝等资本加持下,OneWeb星座持续推进商用落地进程。

基本信息
目录编号:
45454
目录名称:
ONEWEB-0034
国际标识:
2020-020AG
轨道中心:
EARTH
卫星名称:
一网星座-0034星
卫星全名:
一网星座-0034星 (ONEWEB-0034 )
卫星状态:
在轨 (已飞行2319 天)
发射日期:
2020-03-21 UTC
国别 :
英国 (GB)
星等 :
--
轨道信息
数据来源 国际轨道数据 AOE轨道数据
星历时间 2026-07-27T07:14:53+0800
1天前
查看轨道信息
2026-07-25T17:00:00+0800
2天前
查看轨道信息
半长轴 7595.8km 7595.825km
偏心率 0.0002197 0.0002731
轨道倾角 87.892° 87.892°
近地点辐角 90.183° 81.533°
升交点赤经 13.150° 13.469°
平近点角 269.955° 318.886°
近地点 1215.994km 1215.613km
远地点 1219.332km 1219.763km
周期 109.804分钟 109.805分钟
每日圈数 13.114221 13.114156
详细信息
平衡模式:
三轴稳定
覆盖范围:
全球
运营商:
一网卫星公司
运营商所在国:
英国
制造商(研发单位):
一网卫星公司
制造商所在国:
英国
使用方式:
暂无
卫星简介
OneWeb卫星网络由648颗重约125公斤的微型卫星组成,运行在1200公里的轨道上。 每颗卫星都能够提供至少每秒8千兆位的吞吐量,以使用其高吞吐量的Ku频段有效载荷为家庭和移动平台提供互联网接入。该卫星仍在工作。
2D轨道图
3D轨道图
轨道高度分析图
轨道倾角分析图
轨道综合分析图
查看轨道综合分析图